When you browse on this site, cookies collect data to enhance your experience and personalize the content and advertising you see.
Visit our Privacy Policy to learn more. By continuing to use the site, you agree to this use of cookies and data.
  • In Czech Republic
  • List of Countries
  • For 7 days
  • Water Temperature
  • Satellite Maps
  • Weather Map
  • Weather Widgets
  • user-avatar
    Login

    Hourly Weather Naryn

    Today, 19 June, Wednesday

    Time Temperature Precipitation Wind Pressure Humidity
    00:00 +9°C° 0 mm 1 mps 567 mmHg 62%
    01:00 +9°C° 0 mm 1 mps 566 mmHg 64%
    02:00 +9°C° 0 mm 1 mps 566 mmHg 65%
    03:00 +9°C° 0 mm 1 mps 566 mmHg 65%
    04:00 +9°C° 0 mm 1 mps 566 mmHg 65%
    05:00 +9°C° 0 mm 0 mps 567 mmHg 65%
    06:00 +10°C° 0 mm 0 mps 568 mmHg 58%
    07:00 +13°C° 0 mm 1 mps 568 mmHg 50%
    08:00 +14°C° 0 mm 1 mps 569 mmHg 43%
    09:00 +15°C° 0 mm 1 mps 569 mmHg 39%
    10:00 +17°C° 0 mm 2 mps 569 mmHg 34%
    11:00 +18°C° 0 mm 2 mps 570 mmHg 29%
    12:00 +18°C° 0 mm 2 mps 570 mmHg 28%
    13:00 +19°C° 0 mm 3 mps 570 mmHg 27%
    14:00 +20°C° 0 mm 3 mps 570 mmHg 26%
    15:00 +19°C° 0.1 mm 3 mps 569 mmHg 32%
    16:00 +18°C° 0.1 mm 2 mps 569 mmHg 38%
    17:00 +16°C° 0.1 mm 2 mps 569 mmHg 44%
    18:00 +15°C° 0.1 mm 2 mps 568 mmHg 50%
    19:00 +13°C° 0.1 mm 2 mps 568 mmHg 56%
    20:00 +10°C° 0.1 mm 2 mps 568 mmHg 62%
    21:00 +10°C° 0 mm 2 mps 567 mmHg 64%
    22:00 +10°C° 0 mm 1 mps 567 mmHg 65%
    23:00 +10°C° 0 mm 1 mps 567 mmHg 67%

    Tomorrow, 20 June, Thursday

    Time Temperature Precipitation Wind Pressure Humidity
    00:00 +10°C° 0.1 mm 1 mps 567 mmHg 69%
    01:00 +10°C° 0.1 mm 1 mps 567 mmHg 72%
    02:00 +10°C° 0.1 mm 1 mps 567 mmHg 74%
    03:00 +10°C° 0.1 mm 1 mps 567 mmHg 78%
    04:00 +9°C° 0.1 mm 1 mps 567 mmHg 82%
    05:00 +8°C° 0.1 mm 0 mps 567 mmHg 86%
    06:00 +9°C° 0 mm 0 mps 568 mmHg 79%
    07:00 +11°C° 0 mm 0 mps 568 mmHg 73%
    08:00 +12°C° 0 mm 0 mps 569 mmHg 66%
    09:00 +14°C° 0.1 mm 1 mps 569 mmHg 60%
    10:00 +16°C° 0.1 mm 1 mps 570 mmHg 54%
    11:00 +18°C° 0.1 mm 1 mps 570 mmHg 47%
    12:00 +18°C° 0.5 mm 2 mps 570 mmHg 46%
    13:00 +18°C° 0.5 mm 3 mps 570 mmHg 44%
    14:00 +19°C° 0.5 mm 4 mps 570 mmHg 42%
    15:00 +19°C° 0.3 mm 3 mps 570 mmHg 41%
    16:00 +19°C° 0.3 mm 3 mps 570 mmHg 41%
    17:00 +19°C° 0.3 mm 3 mps 571 mmHg 41%
    18:00 +17°C° 0.2 mm 3 mps 570 mmHg 47%
    19:00 +15°C° 0.2 mm 2 mps 570 mmHg 53%
    20:00 +13°C° 0.2 mm 1 mps 569 mmHg 59%
    21:00 +13°C° 0.1 mm 1 mps 569 mmHg 62%
    22:00 +12°C° 0.1 mm 1 mps 569 mmHg 65%
    23:00 +10°C° 0.1 mm 0 mps 568 mmHg 68%

    Day after tomorrow, 21 June, Friday

    Time Temperature Precipitation Wind Pressure Humidity
    00:00 +10°C° 0 mm 0 mps 568 mmHg 71%
    01:00 +9°C° 0 mm 0 mps 567 mmHg 74%
    02:00 +8°C° 0 mm 0 mps 567 mmHg 77%
    03:00 +8°C° 0 mm 0 mps 567 mmHg 77%
    04:00 +8°C° 0 mm 0 mps 567 mmHg 77%
    05:00 +9°C° 0 mm 0 mps 567 mmHg 76%
    06:00 +11°C° 0 mm 0 mps 568 mmHg 68%
    07:00 +13°C° 0 mm 0 mps 569 mmHg 59%
    08:00 +15°C° 0 mm 0 mps 571 mmHg 50%
    09:00 +18°C° 0 mm 1 mps 571 mmHg 44%
    10:00 +19°C° 0 mm 1 mps 571 mmHg 37%
    11:00 +20°C° 0 mm 2 mps 572 mmHg 31%
    12:00 +20°C° 0 mm 2 mps 572 mmHg 29%
    13:00 +21°C° 0 mm 3 mps 572 mmHg 27%
    14:00 +22°C° 0 mm 3 mps 572 mmHg 25%
    15:00 +22°C° 0 mm 3 mps 572 mmHg 26%
    16:00 +22°C° 0 mm 3 mps 572 mmHg 26%
    17:00 +22°C° 0 mm 4 mps 571 mmHg 27%
    18:00 +19°C° 0 mm 3 mps 571 mmHg 34%
    19:00 +16°C° 0 mm 2 mps 570 mmHg 41%
    20:00 +14°C° 0 mm 1 mps 569 mmHg 47%
    21:00 +13°C° 0 mm 1 mps 568 mmHg 50%
    22:00 +12°C° 0 mm 1 mps 568 mmHg 53%
    23:00 +11°C° 0 mm 0 mps 568 mmHg 56%

    22 June, Saturday

    Time Temperature Precipitation Wind Pressure Humidity
    00:00 +10°C° 0 mm 0 mps 568 mmHg 58%
    01:00 +10°C° 0 mm 0 mps 567 mmHg 60%
    02:00 +10°C° 0 mm 0 mps 567 mmHg 61%
    03:00 +10°C° 0 mm 0 mps 567 mmHg 62%
    04:00 +10°C° 0 mm 0 mps 567 mmHg 63%
    05:00 +10°C° 0 mm 0 mps 567 mmHg 64%
    06:00 +13°C° 0 mm 1 mps 568 mmHg 57%
    07:00 +15°C° 0 mm 1 mps 569 mmHg 50%
    08:00 +17°C° 0 mm 2 mps 570 mmHg 43%
    09:00 +18°C° 0.1 mm 2 mps 571 mmHg 42%
    10:00 +19°C° 0.1 mm 3 mps 571 mmHg 41%
    11:00 +20°C° 0.1 mm 3 mps 571 mmHg 39%
    12:00 +20°C° 0.3 mm 4 mps 572 mmHg 39%
    13:00 +20°C° 0.3 mm 5 mps 572 mmHg 38%
    14:00 +20°C° 0.3 mm 5 mps 572 mmHg 37%
    15:00 +20°C° 0.2 mm 6 mps 572 mmHg 36%
    16:00 +20°C° 0.2 mm 6 mps 572 mmHg 35%
    17:00 +20°C° 0.2 mm 6 mps 572 mmHg 34%
    18:00 +17°C° 0 mm 5 mps 571 mmHg 41%
    19:00 +15°C° 0 mm 4 mps 571 mmHg 47%
    20:00 +14°C° 0 mm 2 mps 570 mmHg 54%
    21:00 +13°C° 0.2 mm 2 mps 570 mmHg 60%
    22:00 +12°C° 0.2 mm 1 mps 569 mmHg 66%
    23:00 +11°C° 0.2 mm 1 mps 569 mmHg 72%

    23 June, Sunday

    Time Temperature Precipitation Wind Pressure Humidity
    00:00 +11°C° 0.1 mm 1 mps 568 mmHg 74%
    01:00 +10°C° 0.1 mm 1 mps 568 mmHg 76%
    02:00 +10°C° 0.1 mm 1 mps 568 mmHg 78%
    03:00 +10°C° 0.1 mm 1 mps 568 mmHg 80%
    04:00 +9°C° 0.1 mm 1 mps 567 mmHg 83%
    05:00 +9°C° 0.1 mm 1 mps 567 mmHg 85%
    06:00 +11°C° 0.4 mm 1 mps 569 mmHg 75%
    07:00 +12°C° 0.4 mm 1 mps 569 mmHg 67%
    08:00 +14°C° 0.4 mm 1 mps 570 mmHg 59%
    09:00 +15°C° 0.2 mm 2 mps 570 mmHg 53%
    10:00 +16°C° 0.2 mm 2 mps 571 mmHg 47%
    11:00 +17°C° 0.2 mm 2 mps 571 mmHg 41%
    12:00 +18°C° 0 mm 2 mps 571 mmHg 38%
    13:00 +19°C° 0 mm 3 mps 572 mmHg 35%
    14:00 +20°C° 0 mm 3 mps 572 mmHg 32%
    15:00 +19°C° 0 mm 3 mps 572 mmHg 33%
    16:00 +19°C° 0 mm 3 mps 572 mmHg 35%
    17:00 +19°C° 0 mm 3 mps 572 mmHg 36%
    18:00 +17°C° 0.1 mm 3 mps 571 mmHg 41%
    19:00 +15°C° 0.1 mm 2 mps 571 mmHg 46%
    20:00 +13°C° 0.1 mm 2 mps 570 mmHg 51%
    21:00 +13°C° 0 mm 2 mps 570 mmHg 53%
    22:00 +12°C° 0 mm 2 mps 569 mmHg 56%
    23:00 +11°C° 0 mm 1 mps 569 mmHg 58%

    24 June, Monday

    Time Temperature Precipitation Wind Pressure Humidity
    00:00 +10°C° 0 mm 1 mps 568 mmHg 59%
    01:00 +9°C° 0 mm 1 mps 568 mmHg 61%
    02:00 +9°C° 0 mm 1 mps 567 mmHg 62%
    03:00 +9°C° 0 mm 1 mps 567 mmHg 63%
    04:00 +9°C° 0 mm 1 mps 568 mmHg 64%
    05:00 +9°C° 0 mm 1 mps 568 mmHg 64%
    06:00 +11°C° 0 mm 1 mps 569 mmHg 57%
    07:00 +13°C° 0 mm 1 mps 570 mmHg 49%
    08:00 +14°C° 0 mm 0 mps 571 mmHg 42%
    09:00 +16°C° 0 mm 1 mps 571 mmHg 39%
    10:00 +19°C° 0 mm 1 mps 571 mmHg 37%
    11:00 +20°C° 0 mm 1 mps 572 mmHg 35%
    12:00 +19°C° 0.1 mm 2 mps 572 mmHg 32%
    13:00 +20°C° 0.1 mm 2 mps 572 mmHg 30%
    14:00 +21°C° 0.1 mm 2 mps 572 mmHg 28%
    15:00 +21°C° 0 mm 2 mps 572 mmHg 27%
    16:00 +21°C° 0 mm 3 mps 572 mmHg 27%
    17:00 +21°C° 0 mm 3 mps 572 mmHg 26%
    18:00 +18°C° 0 mm 2 mps 571 mmHg 36%
    19:00 +16°C° 0 mm 2 mps 570 mmHg 47%
    20:00 +13°C° 0 mm 1 mps 569 mmHg 57%
    21:00 +13°C° 0 mm 1 mps 569 mmHg 57%
    22:00 +12°C° 0 mm 1 mps 569 mmHg 58%
    23:00 +12°C° 0 mm 1 mps 569 mmHg 59%
    Show more